Location: Melbourne
(37.8170°S, 144.9670°E)
Time: 18:07:01
(UTC+10:00)

Vanguard 1 Rocket - Visible Passes

Search period start: 27 August 2016 00:00
Search period end: 06 September 2016 00:00
Orbit: 652 x 4225 km, 34.3° (Epoch: 25 August)

Date Brightness Start Highest point End Pass type
(mag) Time Alt. Az. Time Alt. Az. Time Alt. Az.
27 Aug 10.3 05:13:41 10° N 05:21:12 26° NE 05:33:19 10° E visible
28 Aug 10.6 04:07:49 10° NE 04:10:51 12° ENE 04:14:25 10° ENE visible
29 Aug 10.1 05:15:49 10° NNW 05:23:25 32° NE 05:36:30 10° E visible
30 Aug 10.2 04:08:09 10° NNE 04:12:58 16° NE 04:19:34 10° E visible
31 Aug 9.9 05:18:16 10° NNW 05:25:47 39° NE 05:39:27 10° E visible
01 Sep 9.9 04:10:10 11° N 04:15:13 22° NE 04:23:27 10° E visible
02 Sep 9.5 05:20:57 10° NW 05:28:20 46° NNE 05:42:16 10° E visible
03 Sep 9.5 04:13:41 18° N 04:17:35 28° NE 04:26:50 10° E visible
04 Sep 10.0 03:06:44 12° NE 03:07:25 12° NE 03:10:23 10° ENE visible
04 Sep 9.2 05:24:02 11° NW 05:31:02 54° NNE 05:45:02 10° E visible
05 Sep 9.0 04:17:03 25° N 04:20:08 34° NE 04:29:58 10° E visible
